{"data":{"norad_id":64709,"epoch":"2026-09-20T11:31:22.925280Z","epoch_age_seconds":129291,"freshness":"FRESH","line1":"1 64709U 25142P   26263.48012645  .00010263  00000+0  36090-3 0  9991","line2":"2 64709  69.9988 181.0992 0002685 281.4331  78.6542 15.29586721 68697","mean_motion":15.29586721,"eccentricity":0.0002685,"inclination_deg":69.9988,"raan_deg":181.0992,"arg_perigee_deg":281.4331,"mean_anomaly_deg":78.6542,"bstar":0.0003609,"rev_number":6869,"period_min":94.143076703658,"perigee_km":475.20620490671,"apogee_km":478.887438619,"semimajor_km":6855.1838217629,"source":"CELESTRAK","updated_at":"2026-09-21T09:00:35.405594Z"}}